Overview Statistics Trail Chart Weather Telemetry Raw packets
 

This is the latest recevied weather packets stored in our database for station/object W4SNA-3. If no packets are shown the sender has not sent any weather packets the latest 10 day(s).

<< 23 24 25 26 27 28 29 >>
Time Temp. Humidity Pressure Rain* Wind** Luminosity Snow
1788451826 31.67° C 60% 1021.1 hPa 0 mm - - -
1788451526 31.67° C 61% 1021.2 hPa 0 mm - - -
1788451225 31.67° C 61% 1021.2 hPa 0 mm - - -
1788450917 31.67° C 58% 1021.3 hPa 0 mm - - -
1788450614 31.67° C 59% 1021.3 hPa 0 mm - - -
1788450308 31.67° C 59% 1021.3 hPa 0 mm - - -
1788450008 31.67° C 60% 1021.3 hPa 0 mm - - -
1788449708 31.67° C 61% 1021.3 hPa 0 mm - - -
1788449408 31.67° C 63% 1021.3 hPa 0 mm - - -
1788448994 31.67° C 62% 1021.2 hPa 0 mm - - -
1788448704 31.11° C 65% 1021.3 hPa 0 mm - - -
1788448394 31.11° C 65% 1021.2 hPa 0 mm - - -
1788448094 31.11° C 66% 1021.3 hPa 0 mm - - -
1788447794 31.11° C 65% 1021.3 hPa 0 mm - - -
1788447526 31.11° C 64% 1021.3 hPa 0 mm - - -
1788447169 31.11° C 63% 1021.4 hPa 0 mm - - -
1788446880 31.11° C 65% 1021.4 hPa 0 mm - - -
1788446570 30.56° C 66% 1021.4 hPa 0 mm - - -
1788446280 30.56° C 67% 1021.4 hPa 0 mm - - -
1788445969 30° C 66% 1021.4 hPa 0 mm - - -
1788445669 30° C 67% 1021.2 hPa 0 mm - - -
1788445369 29.44° C 66% 1021.2 hPa 0 mm - - -
1788445094 29.44° C 68% 1021.2 hPa 0 mm - - -
1788444769 29.44° C 67% 1021.1 hPa 0 mm - - -
1788444471 28.89° C 69% 1021 hPa 0 mm - - -

* Rain latest hour (hover to see other rain measurements)
** Current wind speed in m/s (hover to see current wind gust speed)